SCP
0 -0 -0 -0 0 -0 0 0 0 0 0 0 0 0 0 0 0 0 0 0 0 0 0 0 0 0 0 0 0 0 0 0 0 0 0 0 0 0 0 0 0 0 0 0
0 -0 -0 0 -0 0 0 0 0 0 0 0 0 0 0 0 0 0 0 0 0 0 0 0 0 0 0 0 0 0 0 0 0 0 0 0 0 0 0 0 0 0 0 0
0 0 0 -0 0 0 0 0 0 0 0 0 0 0 0 0 0 0 0 0 0 0 0 0 0 0 0 0 0 0 0 0 0 0 0 0 0 0 0 0 0 0 0 0
0 0 0 0 -0 0 0 0 0 0 0 0 0 0 0 0 0 0 0 0 0 0 0 0 0 0 0 0 0 0 0 0 0 0 0 0 0 0 0 0 0 0 0 0
0 0 0 0 0 -0 0 0 0 0 0 0 0 0 0 0 0 0 0 0 0 0 0 0 0 0 0 0 0 0 0 0 0 0 0 0 0 0 0 0 0 0 0 0
0 0 0 0 0 0 0 0 0 0 0 0 0 0 0 0 0 0 0 0 0 0 0 0 0 0 0 0 0 0 0 0 0 0 0 0 0 0 0 0 0 0 0 0
0 0 0 0 0 0 0 0 0 0 0 0 0 0 0 0 0 0 0 0 0 0 0 0 0 0 0 0 0 0 0 0 0 0 0 0 0 0 0 0 0 0 0 0
0 0 0 0 0 0 0 0 0 0 0 0 0 0 0 0 0 0 0 0 0 0 0 0 0 0 0 0 0 0 0 0 0 0 0 0 0 0 0 0 0 0 0 0
0 0 0 0 0 0 0 0 0 0 0 0 0 0 0 0 0 0 0 0 0 0 0 0 0 0 0 0 0 0 0 0 0 0 0 0 0 0 0 0 0 0 0 0
0 0 0 0 0 0 0 0 0 0 0 0 0 0 0 0 0 0 0 0 0 0 0 0 0 0 0 0 0 0 0 0 0 0 0 0 0 0 0 0 0 0 0 0
0 0 0 0 0 0 0 0 0 0 0 0 0 0 0 0 0 0 0 0 0 0 0 0 0 0 0 0 0 0 0 0 0 0 0 0 0 0 0 0 0 0 0 0
0 0 0 0 0 0 0 0 0 0 0 0 0 0 0 0 0 0 0 0 0 0 0 0 0 0 0 0 0 0 0 0 0 0 0 0 0 0 0 0 0 0 0 0
0 0 0 0 0 0 0 0 0 0 0 0 0 0 0 0 0 0 0 0 0 0 0 0 0 0 0 0 0 0 0 0 0 0 0 0 -0 0 0 0 0 0 0 0
0 0 0 0 0 0 0 0 0 0 0 0 0 0 0 0 0 0 0 0 0 0 0 0 0 0 0 0 0 0 0 0 0 0 0 -0 0 0 0 0 0 0 0 0
0 0 0 0 0 0 0 0 0 0 0 0 0 0 0 0 0 0 0 0 0 0 0 0 0 0 0 0 0 0 0 0 0 -0 -0 0 0 0 0 0 0 0 0 0
0 0 0 0 0 0 0 0 0 0 0 0 0 0 0 0 0 0 0 0 0 0 0 0 0 0 0 0 -0 0 0 0 0 -0 0 0 0 0 0 0 0 0 0 0
0 0 0 0 0 0 0 0 0 0 0 0 0 0 0 0 0 0 0 0 0 0 -0 -0 0 0 0 0 0 0 0 -0 -0 -0 0 0 0 0 0 0 0 0 0 0
0 0 0 0 0 0 0 0 0 0 0 0 0 0 0 0 0 0 0 0 0 0 0 0 0 0 0 -0 -0 -0 0 0 -0 0 0 0 0 0 0 0 0 0 0 0
0 0 0 0 0 0 0 0 0 0 0 0 0 0 0 0 0 0 0 0 0 0 0 0 0 -0 0 -0 -0 -0 0 0 0 -0 -0 0 0 0 0 0 0 0 -0 -0
0 0 0 0 0 0 0 0 0 0 0 0 0 0 0 0 0 0 0 0 0 0 0 0 0 0 0 -0 0 0 0 -0 -0 -0 -0 -0 -0 -0 -0 -0 -0 -0 -0 -0
0 0 0 0 0 0 0 0 0 0 0 0 0 0 0 0 0 0 0 0 -0 -0 0 0 0 0 0 0 0 0 0 0 -0 -0 -0 -0 -0 -0 -0 -0 0 0 0 -0
0 0 0 0 0 0 0 0 0 0 0 0 0 0 0 -0 -0 0 0 -0 -0 -0 0 0 0 0 0 0 0 0 -0 -0 -0 -0 -0 -0 -0 -0 -0 -0 0 0 -0 -0
0 0 0 0 0 0 0 0 0 0 0 0 0 0 0 0 0 0 0 -0 -0 -0 -0 0 0 0 0 0 0 -0 -0 -0 -0 -0 -0 -0 -0 -0 -0 0 0 0 -0 -0
0 0 0 0 0 0 0 0 0 0 0 0 0 0 0 0 0 -0 -0 0 0 0 0 -0 -0 0 0 0 0 -0 -0 -0 -0 -0 -0 -0 -0 -0 0 -0 0 -0 -0 -0
0 0 0 0 0 0 0 0 0 0 0 0 0 0 0 -0 -0 0 -0 0 0 -0 0 -0 0 0 0 0 0 -0 -0 -0 -0 -0 -0 0 0 0 0 -0 0 -0 -0 -0
0 0 0 0 0 -0 -0 -0 -0 0 -0 0 0 0 0 -0 -0 -0 -0 0 -0 0 0 0 0 0 0 0 -0 -0 -0 0 0 0 0 0 0 0 -0 -0 -0 -0 -0 -0
0 0 0 0 0 -0 -0 0 0 0 0 0 0 0 0 0 0 -0 -0 -0 0 0 -0 0 0 -0 -0 0 0 -0 -0 0 0 0 0 0 0 -0 -0 -0 0 0 0 0
Wind_Speed_500mb
38 39 44 47 60 67 43 13 6 29 6 10 6 4 12 19 14 13 9 9 16 18 11 13 12 19 9 8 6 7 6 4 8 19 24 21 24 34 24 12 9 8 5 13
32 34 40 40 46 59 54 15 11 17 7 6 5 12 9 6 10 9 9 6 6 8 2 8 13 7 16 28 15 6 9 4 7 11 2 7 4 6 5 0 2 9 7 9
32 31 34 33 37 45 40 12 8 14 21 17 8 9 7 8 21 4 9 6 8 8 5 5 10 10 9 27 19 28 13 7 12 19 5 12 14 17 19 12 6 8 17 38
31 30 28 28 33 32 30 15 4 7 7 8 6 5 6 7 7 15 19 4 6 5 6 13 11 9 11 17 25 12 9 8 12 12 27 29 34 39 31 30 27 16 34 34
30 32 27 21 26 28 21 9 8 7 5 11 13 7 4 8 6 6 10 11 10 11 9 18 34 26 11 11 9 13 16 7 9 22 32 34 30 34 30 28 30 28 31 37
25 27 28 20 25 24 11 12 6 2 6 9 8 2 8 11 23 13 17 9 16 20 29 39 42 43 47 30 19 9 11 9 2 12 7 9 13 14 17 7 6 5 8 3
22 23 24 20 18 15 8 8 2 4 5 2 7 10 25 23 15 21 32 27 15 16 35 59 54 57 53 39 36 42 12 11 8 8 8 6 2 4 10 4 11 11 14 7
20 22 21 21 18 11 13 12 3 4 5 11 14 17 9 24 32 18 24 29 16 49 40 8 13 8 3 6 5 14 26 10 5 5 5 11 4 1 5 5 10 5 7 14
23 25 24 23 17 13 14 14 11 7 2 9 10 4 14 8 10 9 9 23 36 18 5 0 5 5 6 4 8 17 13 9 5 2 5 7 6 6 8 3 17 15 10 15
25 23 22 23 21 18 18 16 13 12 9 14 11 7 6 8 9 7 12 15 18 11 2 4 6 5 1 5 8 3 8 6 14 10 6 11 3 5 8 2 6 20 18 31
24 23 23 22 22 23 19 18 18 21 12 29 31 22 24 18 13 4 10 15 2 7 5 4 2 3 1 3 7 5 2 2 4 4 3 10 2 6 1 5 15 31 41 47
24 23 25 21 22 25 23 25 24 22 30 31 56 63 62 54 43 25 8 6 4 5 6 2 4 4 5 1 5 6 2 6 4 12 9 3 2 16 35 26 34 47 53 52
24 22 22 22 22 28 28 27 26 24 21 39 26 32 4 5 19 27 17 15 17 9 5 5 3 6 1 3 6 5 6 4 3 7 4 5 31 5 25 47 45 56 60 60
26 26 26 25 22 26 27 31 28 21 13 8 16 10 39 49 41 42 41 28 12 2 11 6 3 4 2 5 6 5 10 5 1 9 5 25 3 24 59 62 59 56 58 66
27 27 25 28 23 23 30 27 29 26 17 8 26 67 4 15 18 32 29 42 48 16 4 6 5 5 3 4 3 6 9 5 4 8 11 13 32 53 53 56 59 69 68 70
25 27 25 24 22 27 22 13 13 17 29 10 7 17 11 18 10 15 34 33 26 13 7 6 8 4 1 3 6 5 10 12 11 9 28 36 47 43 49 60 64 68 68 76
24 25 24 22 29 29 19 8 4 13 18 6 11 12 9 12 1 13 21 24 20 15 8 7 5 6 7 5 6 6 11 12 19 26 28 32 31 52 56 62 62 64 68 70
28 22 20 21 30 25 26 26 23 11 8 6 5 8 13 4 6 7 15 14 21 14 8 3 6 4 10 7 15 24 23 20 26 18 29 43 51 53 52 57 62 69 72 75
24 22 20 24 24 14 12 12 12 24 11 5 7 4 7 9 6 8 12 13 5 8 5 7 10 5 9 10 16 17 9 12 25 36 39 41 49 57 54 59 64 62 75 80
18 20 13 8 8 13 12 10 11 13 10 11 8 9 7 4 2 6 4 9 4 4 8 6 5 6 24 20 4 3 13 22 31 37 46 49 47 54 55 60 62 65 79 85
36 14 11 12 15 14 5 4 7 7 6 10 12 18 11 8 6 4 7 3 4 4 2 3 3 4 5 7 2 8 19 24 22 27 40 43 41 45 56 58 57 73 77 83
18 12 18 17 9 6 4 6 7 8 7 11 10 14 21 9 13 5 7 3 2 7 10 4 4 2 7 6 7 16 21 19 25 36 43 41 40 45 50 51 60 73 76 79
27 11 10 10 8 9 10 12 7 6 10 14 12 6 9 12 14 10 1 1 7 5 5 4 4 3 7 7 12 22 16 20 27 40 36 40 40 44 47 51 62 77 79 80
11 13 10 9 9 10 10 9 6 13 9 12 22 9 13 10 6 4 4 5 2 4 4 4 4 6 5 7 17 16 21 23 31 36 39 38 40 47 48 48 65 74 81 80
12 10 10 13 18 13 13 24 17 10 12 12 7 7 5 2 2 1 1 2 5 4 4 5 3 1 5 13 12 19 27 25 33 37 32 32 38 44 51 56 68 76 81 77
10 13 8 10 6 16 28 26 20 27 28 16 10 5 4 6 4 3 8 6 8 7 5 5 3 5 6 9 15 21 26 31 28 24 27 29 36 45 52 61 69 77 81 77
10 11 26 16 10 20 13 15 22 25 17 4 6 6 5 3 1 4 6 8 6 10 15 11 10 16 11 10 16 22 29 24 26 27 29 31 35 41 52 64 75 79 80 75
Wind_Direction_500mb
331 341 345 353 352 357 13 33 58 21 347 38 24 43 325 356 15 1 218 197 239 237 232 246 255 256 242 350 6 6 12 200 238 236 259 286 269 270 262 228 210 227 258 258
340 347 347 356 356 358 1 6 346 10 32 71 19 332 323 333 24 354 351 323 43 41 266 295 320 327 84 39 12 108 356 207 297 297 84 51 94 225 149 121 187 197 240 265
339 337 340 354 356 358 0 8 18 20 56 58 58 360 285 327 330 20 348 298 73 20 334 282 284 268 297 333 336 312 101 243 219 254 270 312 270 234 238 226 238 257 242 278
334 332 337 349 0 5 7 24 44 26 347 16 5 288 306 318 337 0 359 342 87 73 261 292 245 302 318 310 287 253 145 249 231 267 261 263 267 265 260 250 245 232 278 275
329 329 334 344 355 2 21 31 21 3 331 325 344 338 315 307 349 323 309 252 317 331 276 261 278 288 267 260 273 163 155 253 240 265 275 258 258 258 255 253 262 264 264 273
321 328 333 340 355 355 27 52 36 27 324 314 327 290 346 314 331 283 237 322 322 302 282 281 275 265 259 242 245 239 193 201 13 277 313 324 272 260 222 235 231 234 259 282
314 314 321 325 333 337 337 350 23 131 275 251 282 304 305 299 294 285 285 300 278 263 302 309 287 267 256 246 243 230 210 167 171 271 1 252 255 70 106 245 244 220 271 283
304 313 316 317 313 325 336 323 266 184 249 245 289 279 267 302 304 277 270 282 275 305 305 295 319 327 315 167 123 224 201 159 220 193 210 293 179 102 29 24 279 201 277 303
295 303 308 308 304 306 313 298 254 238 210 243 238 295 272 297 292 310 260 313 315 307 228 96 272 289 306 297 355 35 77 97 134 196 191 247 230 172 1 206 280 100 329 297
288 293 296 294 293 291 300 278 268 263 248 276 243 229 273 269 270 276 299 338 328 347 319 239 236 263 221 344 329 292 134 150 202 218 254 286 170 332 336 311 276 322 310 299
298 289 292 286 280 284 289 281 263 250 249 275 268 259 235 240 234 230 342 323 203 314 249 254 299 291 268 268 259 329 199 185 213 173 220 287 86 1 101 270 317 319 318 301
291 286 283 281 276 274 275 279 286 264 248 271 283 287 276 258 254 263 246 258 258 258 284 323 305 312 329 322 280 344 314 169 216 181 224 237 198 281 298 292 310 310 312 307
281 281 286 285 279 273 264 282 289 273 277 294 282 301 311 226 225 222 223 228 235 241 215 285 299 274 231 276 259 303 322 46 223 3 19 339 319 6 341 325 313 310 306 303
273 277 287 287 281 267 267 274 278 274 269 282 283 296 294 293 259 265 258 216 201 228 327 267 238 249 206 257 275 207 232 348 291 272 303 335 352 296 319 317 317 309 308 306
266 274 274 279 275 267 259 264 275 270 253 267 288 303 305 317 276 269 213 218 234 262 276 245 233 236 287 256 310 258 199 169 159 246 274 265 293 312 319 316 311 314 313 314
254 267 272 285 267 248 234 269 267 248 244 288 295 301 303 354 323 197 202 219 224 209 234 240 268 214 187 302 256 257 214 222 231 274 306 303 304 312 318 315 315 318 320 317
248 265 274 272 262 236 224 233 264 316 192 248 292 288 287 342 311 155 182 195 215 215 239 231 263 241 162 245 236 253 247 267 295 312 308 306 311 314 323 321 327 329 322 317
234 258 274 258 231 228 238 260 280 243 221 221 272 276 306 301 232 184 191 192 205 226 237 219 227 241 216 253 246 271 268 285 298 304 314 310 315 320 320 328 333 327 320 316
243 240 270 202 212 219 244 262 232 243 226 234 224 253 268 340 325 205 179 183 194 218 223 221 188 218 226 234 275 267 279 311 314 321 328 328 324 327 327 330 332 326 324 325
234 224 185 203 208 215 150 142 190 223 224 228 242 227 267 293 338 279 188 180 220 232 222 201 225 253 268 293 248 248 316 329 331 340 340 335 329 326 326 334 334 335 329 327
197 190 174 179 151 154 187 214 204 201 242 228 242 224 238 240 206 268 233 182 214 254 198 231 238 257 184 172 266 324 330 329 328 336 330 328 326 329 333 334 339 343 334 332
190 186 155 147 173 171 230 205 190 208 246 216 207 223 207 238 211 258 228 199 156 249 148 223 247 252 157 205 317 335 334 333 331 335 332 338 335 336 335 340 346 345 340 336
177 189 147 146 160 214 216 206 196 214 207 216 207 215 209 194 210 251 243 317 235 146 203 240 238 224 235 278 327 337 336 332 333 345 344 337 338 344 345 345 350 351 343 345
186 169 165 203 189 231 204 196 208 205 238 209 218 232 183 186 167 226 186 230 246 251 268 235 248 232 256 315 339 341 340 338 328 336 338 342 344 348 354 353 355 356 350 349
197 176 212 215 234 244 244 243 243 250 237 306 322 296 195 191 275 247 67 291 260 247 264 235 275 249 326 350 13 346 338 326 327 333 339 349 351 353 356 359 0 1 358 357
219 217 229 223 200 250 243 234 227 237 246 265 240 228 197 225 157 144 221 140 226 248 219 166 109 355 39 71 5 0 352 338 348 360 355 354 356 356 357 3 3 6 5 3
217 231 216 219 251 248 219 211 232 240 215 179 206 201 196 123 234 269 181 204 219 192 154 139 116 114 100 35 5 357 356 8 10 8 4 358 357 359 5 5 5 7 7 8
Wind_Speed_850mb
38 39 44 47 60 67 43 13 6 29 6 10 6 4 12 19 14 13 9 9 16 18 11 13 12 19 9 8 6 7 6 4 8 19 24 21 24 34 24 12 9 8 5 13
32 34 40 40 46 59 54 15 11 17 7 6 5 12 9 6 10 9 9 6 6 8 2 8 13 7 16 28 15 6 9 4 7 11 2 7 4 6 5 0 2 9 7 9
32 31 34 33 37 45 40 12 8 14 21 17 8 9 7 8 21 4 9 6 8 8 5 5 10 10 9 27 19 28 13 7 12 19 5 12 14 17 19 12 6 8 17 38
31 30 28 28 33 32 30 15 4 7 7 8 6 5 6 7 7 15 19 4 6 5 6 13 11 9 11 17 25 12 9 8 12 12 27 29 34 39 31 30 27 16 34 34
30 32 27 21 26 28 21 9 8 7 5 11 13 7 4 8 6 6 10 11 10 11 9 18 34 26 11 11 9 13 16 7 9 22 32 34 30 34 30 28 30 28 31 37
25 27 28 20 25 24 11 12 6 2 6 9 8 2 8 11 23 13 17 9 16 20 29 39 42 43 47 30 19 9 11 9 2 12 7 9 13 14 17 7 6 5 8 3
22 23 24 20 18 15 8 8 2 4 5 2 7 10 25 23 15 21 32 27 15 16 35 59 54 57 53 39 36 42 12 11 8 8 8 6 2 4 10 4 11 11 14 7
20 22 21 21 18 11 13 12 3 4 5 11 14 17 9 24 32 18 24 29 16 49 40 8 13 8 3 6 5 14 26 10 5 5 5 11 4 1 5 5 10 5 7 14
23 25 24 23 17 13 14 14 11 7 2 9 10 4 14 8 10 9 9 23 36 18 5 0 5 5 6 4 8 17 13 9 5 2 5 7 6 6 8 3 17 15 10 15
25 23 22 23 21 18 18 16 13 12 9 14 11 7 6 8 9 7 12 15 18 11 2 4 6 5 1 5 8 3 8 6 14 10 6 11 3 5 8 2 6 20 18 31
24 23 23 22 22 23 19 18 18 21 12 29 31 22 24 18 13 4 10 15 2 7 5 4 2 3 1 3 7 5 2 2 4 4 3 10 2 6 1 5 15 31 41 47
24 23 25 21 22 25 23 25 24 22 30 31 56 63 62 54 43 25 8 6 4 5 6 2 4 4 5 1 5 6 2 6 4 12 9 3 2 16 35 26 34 47 53 52
24 22 22 22 22 28 28 27 26 24 21 39 26 32 4 5 19 27 17 15 17 9 5 5 3 6 1 3 6 5 6 4 3 7 4 5 31 5 25 47 45 56 60 60
26 26 26 25 22 26 27 31 28 21 13 8 16 10 39 49 41 42 41 28 12 2 11 6 3 4 2 5 6 5 10 5 1 9 5 25 3 24 59 62 59 56 58 66
27 27 25 28 23 23 30 27 29 26 17 8 26 67 4 15 18 32 29 42 48 16 4 6 5 5 3 4 3 6 9 5 4 8 11 13 32 53 53 56 59 69 68 70
25 27 25 24 22 27 22 13 13 17 29 10 7 17 11 18 10 15 34 33 26 13 7 6 8 4 1 3 6 5 10 12 11 9 28 36 47 43 49 60 64 68 68 76
24 25 24 22 29 29 19 8 4 13 18 6 11 12 9 12 1 13 21 24 20 15 8 7 5 6 7 5 6 6 11 12 19 26 28 32 31 52 56 62 62 64 68 70
28 22 20 21 30 25 26 26 23 11 8 6 5 8 13 4 6 7 15 14 21 14 8 3 6 4 10 7 15 24 23 20 26 18 29 43 51 53 52 57 62 69 72 75
24 22 20 24 24 14 12 12 12 24 11 5 7 4 7 9 6 8 12 13 5 8 5 7 10 5 9 10 16 17 9 12 25 36 39 41 49 57 54 59 64 62 75 80
18 20 13 8 8 13 12 10 11 13 10 11 8 9 7 4 2 6 4 9 4 4 8 6 5 6 24 20 4 3 13 22 31 37 46 49 47 54 55 60 62 65 79 85
36 14 11 12 15 14 5 4 7 7 6 10 12 18 11 8 6 4 7 3 4 4 2 3 3 4 5 7 2 8 19 24 22 27 40 43 41 45 56 58 57 73 77 83
18 12 18 17 9 6 4 6 7 8 7 11 10 14 21 9 13 5 7 3 2 7 10 4 4 2 7 6 7 16 21 19 25 36 43 41 40 45 50 51 60 73 76 79
27 11 10 10 8 9 10 12 7 6 10 14 12 6 9 12 14 10 1 1 7 5 5 4 4 3 7 7 12 22 16 20 27 40 36 40 40 44 47 51 62 77 79 80
11 13 10 9 9 10 10 9 6 13 9 12 22 9 13 10 6 4 4 5 2 4 4 4 4 6 5 7 17 16 21 23 31 36 39 38 40 47 48 48 65 74 81 80
12 10 10 13 18 13 13 24 17 10 12 12 7 7 5 2 2 1 1 2 5 4 4 5 3 1 5 13 12 19 27 25 33 37 32 32 38 44 51 56 68 76 81 77
10 13 8 10 6 16 28 26 20 27 28 16 10 5 4 6 4 3 8 6 8 7 5 5 3 5 6 9 15 21 26 31 28 24 27 29 36 45 52 61 69 77 81 77
10 11 26 16 10 20 13 15 22 25 17 4 6 6 5 3 1 4 6 8 6 10 15 11 10 16 11 10 16 22 29 24 26 27 29 31 35 41 52 64 75 79 80 75
Wind_Direction_850mb
331 341 345 353 352 357 13 33 58 21 347 38 24 43 325 356 15 1 218 197 239 237 232 246 255 256 242 350 6 6 12 200 238 236 259 286 269 270 262 228 210 227 258 258
340 347 347 356 356 358 1 6 346 10 32 71 19 332 323 333 24 354 351 323 43 41 266 295 320 327 84 39 12 108 356 207 297 297 84 51 94 225 149 121 187 197 240 265
339 337 340 354 356 358 0 8 18 20 56 58 58 360 285 327 330 20 348 298 73 20 334 282 284 268 297 333 336 312 101 243 219 254 270 312 270 234 238 226 238 257 242 278
334 332 337 349 0 5 7 24 44 26 347 16 5 288 306 318 337 0 359 342 87 73 261 292 245 302 318 310 287 253 145 249 231 267 261 263 267 265 260 250 245 232 278 275
329 329 334 344 355 2 21 31 21 3 331 325 344 338 315 307 349 323 309 252 317 331 276 261 278 288 267 260 273 163 155 253 240 265 275 258 258 258 255 253 262 264 264 273
321 328 333 340 355 355 27 52 36 27 324 314 327 290 346 314 331 283 237 322 322 302 282 281 275 265 259 242 245 239 193 201 13 277 313 324 272 260 222 235 231 234 259 282
314 314 321 325 333 337 337 350 23 131 275 251 282 304 305 299 294 285 285 300 278 263 302 309 287 267 256 246 243 230 210 167 171 271 1 252 255 70 106 245 244 220 271 283
304 313 316 317 313 325 336 323 266 184 249 245 289 279 267 302 304 277 270 282 275 305 305 295 319 327 315 167 123 224 201 159 220 193 210 293 179 102 29 24 279 201 277 303
295 303 308 308 304 306 313 298 254 238 210 243 238 295 272 297 292 310 260 313 315 307 228 96 272 289 306 297 355 35 77 97 134 196 191 247 230 172 1 206 280 100 329 297
288 293 296 294 293 291 300 278 268 263 248 276 243 229 273 269 270 276 299 338 328 347 319 239 236 263 221 344 329 292 134 150 202 218 254 286 170 332 336 311 276 322 310 299
298 289 292 286 280 284 289 281 263 250 249 275 268 259 235 240 234 230 342 323 203 314 249 254 299 291 268 268 259 329 199 185 213 173 220 287 86 1 101 270 317 319 318 301
291 286 283 281 276 274 275 279 286 264 248 271 283 287 276 258 254 263 246 258 258 258 284 323 305 312 329 322 280 344 314 169 216 181 224 237 198 281 298 292 310 310 312 307
281 281 286 285 279 273 264 282 289 273 277 294 282 301 311 226 225 222 223 228 235 241 215 285 299 274 231 276 259 303 322 46 223 3 19 339 319 6 341 325 313 310 306 303
273 277 287 287 281 267 267 274 278 274 269 282 283 296 294 293 259 265 258 216 201 228 327 267 238 249 206 257 275 207 232 348 291 272 303 335 352 296 319 317 317 309 308 306
266 274 274 279 275 267 259 264 275 270 253 267 288 303 305 317 276 269 213 218 234 262 276 245 233 236 287 256 310 258 199 169 159 246 274 265 293 312 319 316 311 314 313 314
254 267 272 285 267 248 234 269 267 248 244 288 295 301 303 354 323 197 202 219 224 209 234 240 268 214 187 302 256 257 214 222 231 274 306 303 304 312 318 315 315 318 320 317
248 265 274 272 262 236 224 233 264 316 192 248 292 288 287 342 311 155 182 195 215 215 239 231 263 241 162 245 236 253 247 267 295 312 308 306 311 314 323 321 327 329 322 317
234 258 274 258 231 228 238 260 280 243 221 221 272 276 306 301 232 184 191 192 205 226 237 219 227 241 216 253 246 271 268 285 298 304 314 310 315 320 320 328 333 327 320 316
243 240 270 202 212 219 244 262 232 243 226 234 224 253 268 340 325 205 179 183 194 218 223 221 188 218 226 234 275 267 279 311 314 321 328 328 324 327 327 330 332 326 324 325
234 224 185 203 208 215 150 142 190 223 224 228 242 227 267 293 338 279 188 180 220 232 222 201 225 253 268 293 248 248 316 329 331 340 340 335 329 326 326 334 334 335 329 327
197 190 174 179 151 154 187 214 204 201 242 228 242 224 238 240 206 268 233 182 214 254 198 231 238 257 184 172 266 324 330 329 328 336 330 328 326 329 333 334 339 343 334 332
190 186 155 147 173 171 230 205 190 208 246 216 207 223 207 238 211 258 228 199 156 249 148 223 247 252 157 205 317 335 334 333 331 335 332 338 335 336 335 340 346 345 340 336
177 189 147 146 160 214 216 206 196 214 207 216 207 215 209 194 210 251 243 317 235 146 203 240 238 224 235 278 327 337 336 332 333 345 344 337 338 344 345 345 350 351 343 345
186 169 165 203 189 231 204 196 208 205 238 209 218 232 183 186 167 226 186 230 246 251 268 235 248 232 256 315 339 341 340 338 328 336 338 342 344 348 354 353 355 356 350 349
197 176 212 215 234 244 244 243 243 250 237 306 322 296 195 191 275 247 67 291 260 247 264 235 275 249 326 350 13 346 338 326 327 333 339 349 351 353 356 359 0 1 358 357
219 217 229 223 200 250 243 234 227 237 246 265 240 228 197 225 157 144 221 140 226 248 219 166 109 355 39 71 5 0 352 338 348 360 355 354 356 356 357 3 3 6 5 3
217 231 216 219 251 248 219 211 232 240 215 179 206 201 196 123 234 269 181 204 219 192 154 139 116 114 100 35 5 357 356 8 10 8 4 358 357 359 5 5 5 7 7 8